User: anonymous   Login
Location: Unspecified
(0.0000°N, 0.0000°E)
Time: 17:29:43
(UTC+00:00)
Language:

COSMOS 2453 - Orbit

View from above orbital plane
View from above orbital plane
View from above satellite
View from above satellite

Ground track
Ground track

The orbit data is extracted from the following two-line orbital elements,

1 35500U 09036C   18049.71294135 -.00000009 +00000-0 -13828-3 0  9991
2 35500 082.4903 176.6197 0005897 305.5796 054.4735 12.41454360390822
Epoch (UTC): 18 February 2018 17:06:38
Eccentricity: 0.0005897
inclination: 82.4903°
perigee height: 1496 km
apogee height: 1505 km
right ascension of ascending node: 176.6197°
argument of perigee: 305.5796°
revolutions per day: 12.41454360
mean anomaly at epoch: 54.4735°
orbit number at epoch: 39082

The dashed part of the orbit path shows where the satellite is in the earth's shadow,  

DLR